Weather in Il'ichovo

Russia / Republic of Crimea     45°14′41″N   35°04′15″E
temp.,
°C
wind,
m/s
gust,
m/s
humid.,
%
clouds,
%
prec.,
mm/h
press.,
hPa
HPBL,
m
1 march, mon
mon100:00+4nw4691100 0.4 1024534
03:00+3w3590100 0.7 1024399
06:00+2wsw359198 0.0 1024153
09:00+2wnw468084 0.0 1025495
12:00+5nw346072 0.0 10261065
15:00+4nne337385 0.1 1026588
18:00+3nne347692 0.0 1027524
21:00+2nne228390 0.1 102940
2 march, tue
tue200:00+1nw128724 0.0 103022
03:00+1w238555 0.0 103165
06:00+2wnw238097 0.1 103081
09:00+2nw337864 0.1 1031203
12:00+5w455719 0.0 10301067
15:00+7w565232 0.0 10291257
18:00+6w69600 0.0 1026817
21:00+3wsw6127146 0.0 1026656
3 march, wed
wed300:00+3wsw8157533 0.0 1024533
03:00+3wsw9187833 0.0 1022612
06:00+5w8138196 0.0 1021636
09:00+4nw598098 0.0 1022773
12:00+6nnw786498 0.1 10241247
15:00+7n675480 0.2 10251275
18:00+6nnw47580 0.0 1026563
21:00+3nw23690 0.0 102842
4 march, thu
thu400:00+2wnw22760 0.0 102824
03:00+1w22760 0.0 102824
06:00+1wsw22760 0.0 102721
09:00+4ssw22580 0.0 1027129
12:00+8sw34390 0.0 10261250
15:00+10sw34370 0.0 10241505
18:00+7ssw46620 0.0 1022266
21:00+4sw23797 0.0 102152
5 march, fri
fri500:00+3ssw22840 0.0 102033
03:00+2ssw22860 0.0 101930
06:00+1ssw22880 0.0 101834
09:00+5ssw23762 0.0 1018152
12:00+10ssw23510 0.0 1018645
15:00+13s44450 0.0 1017983
18:00+9s57670 0.0 1016234
21:00+5s478212 0.0 1016174